Home > Weather > Black Mountain > Past weeks

Flag for USA Past Weather in Black Mountain, North Carolina, USA — Yesterday and Last 2 Weeks

Now
81 °F

Sunny.


Feels Like: 82 °F
Forecast: 62 / 85 °F
Wind: 8 mph from North

Location: Asheville Regional Airport

Current Time: Aug 29, 2016 at 2:02:05 PM

Latest Report: Aug 29, 2016 at 12:54 PM


Visibility: 10 mi

Pressure: 30.17 "Hg (27.77 "Hg at 729m altitude)

Humidity: 53%

Dew Point: 62 °F

Location of Black MountainLocation

Past Weather in Black Mountain — Graph

°F

Black Mountain Temperature Yesterday

Maximum temperature yesterday: 85 °F (at 2:54 PM)
Minimum temperature yesterday: 66 °F (at 5:54 AM)
Average temperature yesterday: 75 °F

High & Low Weather Summary for the Past Weeks

 TemperatureHumidityPressure
High90 °F (Aug 26, 2:54 PM)97% (Aug 15, 7:03 AM)30.34 "Hg (Aug 15, 7:03 AM)
Low61 °F (Aug 29, 6:59 AM)34% (Aug 26, 2:54 PM)29.86 "Hg (Aug 21, 2:54 AM)
Average74 °F76%30.13 "Hg
* Reported Aug 14 12:54 PM — Aug 29 12:54 PM, Black Mountain, Weather by CustomWeather, © 2016

Note: Actual official high and low records may vary slightly from our data, if they occured in-between our weather recording intervals... More about our weather records

Advertising

Black Mountain Weather History for the Previous 24 Hours

Scroll right to see more
 ConditionsComfort  
Time TempWeatherWind HumidityBarometerVisibility
12:54 PM
Mon, Aug 29
81 °FSunny.8 mph53%30.17 "Hg10 mi
11:54 AM79 °FSunny.No wind54%30.18 "Hg10 mi
10:54 AM77 °FSunny.6 mph58%30.19 "Hg10 mi
9:54 AM72 °FSunny.5 mph73%30.19 "Hg10 mi
8:54 AM65 °FSunny.3 mph91%30.19 "Hg10 mi
8:01 AM62 °FFog.No wind93%30.26 "Hg2 mi
7:54 AM62 °FFog.No wind93%30.18 "Hg5 mi
7:01 AM61 °FFog.No wind93%30.25 "Hg1 mi
6:59 AM61 °FFog.No wind90%30.25 "Hg1 mi
5:54 AM62 °FLow clouds.No wind90%30.16 "Hg10 mi
4:54 AM63 °FClear.No wind90%30.15 "Hg10 mi
3:54 AM63 °FClear.No wind93%30.15 "Hg10 mi
2:54 AM64 °FClear.No wind90%30.15 "Hg8 mi
1:54 AM66 °FClear.No wind90%30.16 "Hg10 mi
12:54 AM67 °FClear.No wind90%30.17 "Hg9 mi
11:54 PM
Sun, Aug 28
69 °FClear.No wind87%30.17 "Hg10 mi
10:54 PM70 °FClear.No wind87%30.17 "Hg10 mi
9:54 PM72 °FClear.6 mph84%30.15 "Hg10 mi
8:54 PM75 °FSunny.No wind71%30.14 "Hg10 mi
7:54 PM78 °FSunny.3 mph64%30.13 "Hg10 mi
6:54 PM81 °FSunny.3 mph60%30.12 "Hg10 mi
5:54 PM83 °FPartly sunny.N/A55%30.11 "Hg10 mi
4:54 PM84 °FPassing clouds.7 mph55%30.10 "Hg10 mi
3:54 PM85 °FPassing clouds.7 mph51%30.12 "Hg10 mi
2:54 PM85 °FPassing clouds.6 mph50%30.14 "Hg10 mi
Weather by CustomWeather, © 2016

See weather overviewHow to use our weather pages